CZ-6A DEB, 61387

Orbit data source: Space-Track

CZ-6A DEB, 61387 is space debris in LEO originally from a launch on Tue, 06 Aug 2024 UTC launched from the Taiyaun Space Center, China (TSC). Debris objects in space refer to the collection of defunct objects orbiting the Earth. Examples of debris include non-operational satellites, rocket bodies, and fragments generated from explosions, collisions, or faulty payload assembly.

Loading next visibility...
Identifier
61387, 2024-140XC
Orbit
LEO
Country
Flag of CNCN / PRC
Related business
Manufacturer
SAST
Mission
Spacecraft
Bus & Motor
Unknown
Mass
Unknown
Launch date (UTC)
2024-08-06 (1 year ago)
Launch vehicle
Unknown
Launch site
Taiyaun Space Center, China (TSC)
Object type
Payload
Rocket body
Debris
Shape & HBR
Unknown shape, 0.1 m
Radar Cross Section
Small (<0.1 m²)

Expand to show TLE details & history
Last TLE update: 15 hours ago

TLE from 15 hours ago
0 CZ-6A DEB
1 61387U 24140XC  25350.30106016  .00002777  00000-0  11844-2 0  9991
2 61387  89.0081 295.5918 0043243  40.2633 320.1748 14.24350617 66433
Epoch: 2025-12-16T07:13Z
TLE epoch observation values (Epoch: 2025-12-16T07:13:31.597Z)
Latitude
-0.00007°
Longitude
102.0229°
Altitude
789.912 km
Speed
7.471 km/s
True Right ascension
19h 42m 22s
True Declination
0° 00' 00"
Sunlit
Object was in daylight at epoch
Visualization orbit readout
Latitude
Unknown
Longitude
Unknown
Altitude
Unknown
Speed
Unknown
Apparent Right ascension
Unknown
Apparent Declination
Unknown
Sunlit
N/A
Visualization observer readout
Local Sidereal Time
20:56:08
Azimuth
Unknown
Elevation
Unknown
Doppler factor
Unknown
Orbital elements
Apogee altitude
838.695 km
Perigee altitude
776.548 km
Semi-major axis
7,185.759 km
Eccentricity
0.00432
Inclination
89.0081°
RAAN
295.5918°
Arg. of periapsis
40.2633°
True anomaly
319.85612°
Mean anomaly
320.1748°
Eccentric anomaly
320.01559°
Mean motion
3.56315 °/min
Orbital period
101.03 mins
BSTAR
0.0011844
Loading maneuver chart data...
Computing Atmospheric mass density...
Loading historical data...
Loading historical data...
Loading historical data...
Loading historical data...
Loading historical data...
Loading historical data...
Loading historical data...

Documentation

Showing up to 5 results
|